Location: ????????
(48.4751°N, 37.6926°E)
Time: 07:59:50
(UTC+00:00)

Daily predictions for brighter satellites

Satellite Brightness Start Highest point End
(mag) Time Altitude Azimuth Time Altitude Azimuth Time Altitude Azimuth
Cosmos 2227 4.4 14:35:12 10° S 14:40:43 59° ESE 14:46:18 10° NE
ATLAS 2AS CENTAUR R/B 3.3 14:33:17 10° SW 14:41:15 73° NW 14:49:03 10° NE
Cosmos 1503 Rocket 4.1 14:35:57 10° S 14:41:15 67° ESE 14:46:37 10° NNE
Cosmos 1674 3.3 14:38:21 10° SSW 14:42:09 62° WNW 14:45:59 10° N
Cosmos 2227 Rocket 3.8 14:38:57 10° WSW 14:43:54 30° NW 14:48:53 10° NNE
Cosmos 1315 Rocket 3.0 14:40:01 10° N 14:43:54 50° ENE 14:47:48 10° SSE
Cosmos 1536 Rocket 3.7 14:41:50 10° SSW 14:46:13 81° W 14:50:41 10° N
CZ-4 R/B 2.9 14:43:51 10° E 14:46:26 16° ENE 14:48:59 10° NNE
Cosmos 1634 Rocket 4.0 14:40:36 10° N 14:46:52 75° E 14:53:09 10° SSE
COSMO-SKYMED 1 3.8 14:44:18 10° NE 14:47:44 22° E 14:51:08 10° SE
TIMED 4.5 14:45:31 10° NNW 14:49:55 78° ENE 14:54:17 10° SSE
Cosmos 1844 Rocket 4.1 14:48:18 10° SE 14:51:56 18° E 14:55:34 10° ENE
CZ-2C R/B 3.8 14:49:19 10° SE 14:54:05 35° ENE 14:59:06 10° N
Cosmos 1025 Rocket 4.4 14:53:29 10° SW 14:57:35 41° WNW 15:01:44 10° N
H-2A R/B 3.1 14:53:47 10° ESE 14:57:35 22° ENE 15:01:28 10° N
Okean-O 3.8 14:56:06 10° ESE 14:59:29 22° ENE 15:02:53 10° NNE
H-2A R/B 2.9 14:56:27 10° S 15:00:25 65° WSW 15:04:36 10° NNW
SeaSat 1 4.1 14:57:06 10° NNE 15:01:21 30° NW 15:05:35 10° WSW
Cosmos 773 Rocket 3.9 14:56:13 10° NNW 15:01:24 72° ENE 15:06:31 10° SSE
CZ-4B R/B 3.4 14:56:29 10° SSE 15:02:02 83° WSW 15:07:43 10° NNW
Okean O Rocket 1.6 14:57:55 10° SSE 15:02:21 88° E 15:06:50 10° NNW
SL-24 R/B 4.3 14:58:08 10° SSE 15:02:28 83° WSW 15:07:09 10° NNW
SMAP 3.4 14:58:46 10° S 15:03:24 70° WSW 15:08:04 10° NNW
CZ-4B R/B 2.2 15:03:06 10° NNE 15:06:10 31° E 15:09:10 10° SSE
Cosmos 1626 2.6 15:04:37 10° SSW 15:08:17 64° W 15:11:59 10° N
Cosmos 1603 4.3 15:03:03 10° NNW 15:08:42 63° WSW 15:14:20 10° SSE
Cosmos 2297 Rocket 4.3 15:04:42 10° W 15:08:42 19° NW 15:12:44 10° N
Meteor 2-10 Rocket 3.9 15:04:42 10° N 15:10:04 46° ENE 15:15:11 10° SE
OPS 8737 4.4 15:07:08 10° NW 15:10:12 60° NE 15:14:07 10° SE
USA 234 3.9 15:05:38 11° ENE 15:11:27 43° N 15:17:33 10° WNW
Cosmos 1689 Rocket 4.3 15:16:17 11° ESE 15:16:17 11° ESE 15:16:36 10° ESE
Aureole 2 Rocket 3.7 15:13:58 10° SSE 15:16:06 18° ESE 15:16:36 17° E
Cosmos 1606 Rocket 3.6 15:14:58 10° N 15:19:23 89° W 15:23:48 10° S
ATLAS 5 CENTAUR R/B 1.7 15:16:14 10° SW 15:20:16 70° NW 15:24:33 12° NE
H-2A R/B 2.4 15:16:16 10° N 15:20:45 74° WNW 15:25:06 10° SSW
ATLAS 3B R/B 4.1 15:14:37 10° NW 15:21:08 44° WSW 15:27:53 10° S
CZ-2D R/B 3.3 15:17:30 10° SSE 15:21:15 52° ENE 15:25:00 10° N
YAOGAN 1 3.3 15:18:16 10° SE 15:22:06 31° ENE 15:25:57 10° N
Cosmos 1892 Rocket 3.7 15:18:24 10° S 15:22:37 52° E 15:26:50 10° NNE
BREEZE-M DEB (TANK) 4.5 15:19:55 10° W 15:23:17 26° SW 15:25:22 10° SSE
MOS 1 Rocket 3.5 15:23:53 10° NNE 15:28:00 40° E 15:32:01 10° SSE
Helios 1A Rocket 3.7 15:25:18 10° SE 15:28:52 29° ENE 15:32:29 10° N
Cosmos 2180 Rocket 4.5 15:22:37 10° N 15:29:03 77° E 15:35:27 10° SSE
SL-14 R/B 4.2 15:26:08 10° SSW 15:29:53 50° WNW 15:33:44 10° N
CZ-4C R/B 3.3 15:25:22 10° W 15:30:17 37° NNW 15:36:07 10° NE
RESURS DK-1 3.8 15:27:40 10° WSW 15:31:29 35° NW 15:35:19 10° NNE
Cosmos 2228 3.6 15:27:26 10° NNW 15:31:38 59° W 15:35:50 10° S
Meteor 2-5 Rocket 4.1 15:26:13 10° SSW 15:31:45 66° WNW 15:37:17 10° N
Nadezhda 4 Rocket 4.2 15:27:58 10° SSE 15:33:54 47° E 15:39:48 10° NNE
Aureole 3 3.6 15:30:58 10° N 15:34:18 31° ENE 15:37:10 10° SE
Cosmos 1538 Rocket 3.9 15:29:40 10° NNW 15:34:52 80° ENE 15:40:02 10° SSE
SKYMED 2 3.5 15:31:41 10° NNE 15:36:02 65° ESE 15:40:20 10° S
Cosmos 1777 Rocket 3.9 15:34:56 10° SSW 15:40:10 80° ESE 15:45:30 10° NNE
SJ 16-02 2.0 15:36:14 10° SSE 15:40:12 34° ESE 15:41:54 25° ENE
Cosmos 2263 Rocket 2.9 15:35:17 10° SW 15:40:50 53° WNW 15:46:24 10° NNE
BREEZE-M DEB (TANK) 1.7 15:39:00 10° W 15:41:17 64° N 15:41:43 47° ENE
COSMOS 2406 4.3 15:45:02 10° N 15:49:44 25° NE 15:50:36 24° ENE
Cosmos 2058 Rocket 3.1 15:46:10 10° N 15:50:41 86° W 15:55:11 10° S
Cosmos 1455 2.2 15:47:23 10° N 15:51:09 56° ENE 15:54:53 10° SSE
Meteor 2-13 Rocket 4.4 15:46:51 10° S 15:52:50 61° E 15:58:53 10° NNE
NOSS 3-1 (C) 4.2 15:47:33 10° NW 15:54:29 50° NE 15:59:43 22° ESE
ARGOS 3.3 15:51:00 10° SE 15:56:06 48° ENE 16:01:16 10° N
X-37B 2.4 15:58:33 10° SSW 16:00:57 21° SSE 16:00:57 21° SSE
Lacrosse 5 1.8 15:57:42 10° NW 16:02:47 90° SW 16:05:44 25° SE
Okean 1-7 Rocket 3.6 15:59:20 10° S 16:03:52 90° W 16:08:29 10° N
CZ-2C R/B 3.4 16:04:20 31° E 16:04:20 31° E 16:09:02 10° SSE
CSL-04 Debris 4.1 16:00:42 10° SSE 16:05:58 59° ENE 16:11:17 10° N
COSMOS 2455 2.8 16:00:40 10° SSW 16:06:41 89° WNW 16:10:52 21° NE
ERS-2 2.0 16:07:29 28° NNE 16:09:18 87° WNW 16:12:56 10° SSW
USA 281 4.5 16:09:49 21° NE 16:09:52 21° NE 16:14:27 10° N
PSLV R/B 3.8 16:07:09 22° NNE 16:09:52 77° ESE 16:14:05 10° S
CREW DRAGON DEMO-1 DEB 3.2 16:08:01 10° WNW 16:10:24 56° NW 16:10:24 56° NW
Cosmos 2026 Rocket 4.2 16:05:20 10° SSE 16:11:01 43° E 16:16:48 10° NNE
USA 229 DEB 4.2 16:04:29 10° NW 16:11:23 47° NE 16:14:20 33° E
USA 229 4.2 16:04:35 10° NW 16:11:29 47° NE 16:14:23 33° E
ISS -2.9 16:09:18 10° SW 16:12:02 38° S 16:12:02 38° S
Cosmos 1844 3.7 16:07:20 10° S 16:12:51 58° ESE 16:15:14 34° NE
Cosmos 1833 Rocket 3.6 16:08:29 10° NNW 16:12:58 28° NE 16:12:58 28° NE
Cosmos 2082 Rocket 3.7 16:10:44 10° N 16:14:04 20° NNE 16:14:04 20° NNE
Cosmos 1626 Rocket 3.4 16:11:05 10° S 16:15:25 65° E 16:16:49 40° NNE
Cosmos 990 Rocket 4.4 16:11:39 10° S 16:16:10 39° ESE 16:16:10 39° ESE
USA 267 4.0 16:16:51 30° ESE 16:17:50 31° SE 16:23:30 10° S
CZ-4 R/B 2.0 16:17:00 10° S 16:21:03 58° W 16:25:03 10° NNW
COSMO-SKYMED 1 3.7 16:19:57 10° N 16:24:05 42° WNW 16:28:10 10° SW
DMSP B5D1-3 4.4 16:21:09 25° NNE 16:24:10 70° ESE 16:29:14 10° S
SL-08 RB Rocket 3.9 16:27:10 50° NNE 16:27:10 50° NNE 16:30:47 10° N
NOSS 3-1 (A) 4.2 16:20:01 10° NW 16:27:00 50° NE 16:29:28 39° E
ATLAS 2AS CENTAUR R/B 4.2 16:26:33 10° W 16:33:31 32° NNW 16:38:05 19° NNE
CZ-2C R/B 4.5 16:28:54 10° SSW 16:33:52 41° W 16:39:07 10° NNW
Cosmos 1844 Rocket 2.7 16:29:25 10° SSW 16:35:06 82° WNW 16:37:42 34° NNE
Okean-O 3.5 16:31:22 10° S 16:35:40 48° W 16:40:00 10° NNW
Cosmos 2195 Rocket 4.4 16:30:15 10° S 16:36:33 76° E 16:42:54 10° NNE
Cosmos 923 Rocket 4.2 16:31:13 10° NNW 16:36:33 71° WSW 16:41:50 10° SSE
H-2A R/B 2.5 16:31:41 10° S 16:36:35 60° W 16:41:39 10° NNW
Meteor 1-21 Rocket 4.2 16:31:12 10° SSW 16:36:43 80° WNW 16:42:19 10° N
CZ-4B R/B 4.1 16:35:42 10° NNW 16:38:11 19° WNW 16:40:38 10° WSW
Meteor 2-8 Rocket 4.3 16:32:18 10° N 16:38:25 82° E 16:44:32 10° SSE
Meteor 2-15 4.4 16:33:01 10° N 16:39:07 61° ENE 16:40:30 49° SE
Cosmos 2344 4.2 16:34:16 10° NW 16:43:16 71° NE 16:49:29 33° ESE
Cosmos 1680 Rocket 3.5 16:38:44 10° NNW 16:44:00 80° WSW 16:46:09 36° SSE
Cosmos 1898 Rocket 4.0 16:39:33 10° S 16:43:20 44° SSE 16:43:20 44° SSE
Cosmos 1627 Rocket 4.3 16:40:07 10° S 16:46:17 80° E 16:52:33 10° N
Cosmos 1428 Rocket 4.3 16:45:12 10° S 16:51:29 81° E 16:57:50 10° N
Cosmos 2098 Rocket 4.2 16:44:53 10° S 16:51:55 72° E 16:59:21 10° NNE
Cosmos 1818 3.7 16:47:53 10° SW 16:53:18 70° NW 16:54:11 59° N
USA 234 3.2 16:52:59 57° ENE 16:53:54 62° NNE 17:00:22 10° NW
Cosmos 1602 Rocket 4.3 16:51:10 10° SSW 16:54:20 46° SW 16:54:20 46° SW
CSL-04 Rocket 4.1 16:52:05 10° S 16:57:24 60° WSW 17:02:51 10° NNW
YAOGAN 1 4.4 16:54:22 10° SSW 16:58:11 30° W 17:02:01 10° NNW
Cosmos 1092 Rocket 4.2 16:55:22 10° SSW 17:01:32 67° WNW 17:07:41 10° N
ATLAS 5 CENTAUR R/B 3.7 17:02:34 10° WNW 17:05:49 20° NNW 17:06:05 20° NNW
Iridium 4 Rocket 4.1 17:00:49 10° N 17:06:29 59° W 17:11:41 10° SSW
SJ 16-02 3.1 17:14:55 10° WSW 17:18:47 29° WNW 17:18:57 29° NW
CZ-3B R/B 3.3 17:17:15 10° WNW 17:20:09 50° SW 17:20:09 50° SW
CZ-4C R/B 4.1 17:16:09 10° NW 17:20:42 22° N 17:21:18 22° N
COSMOS 2406 4.2 17:28:54 10° NNW 17:32:43 43° NW 17:32:43 43° NW
CZ-2C R/B 3.9 17:45:49 39° WSW 17:45:49 39° WSW 17:49:50 10° SW
Lacrosse 5 4.0 17:41:29 10° WNW 17:45:00 21° WSW 17:45:00 21° WSW
NOSS 3-1 (C) 4.4 17:38:22 10° NW 17:45:44 59° WSW 17:47:11 52° SSW
USA 281 4.5 17:56:41 31° NNW 17:56:41 31° NNW 17:59:55 10° NNW
Cosmos 1833 Rocket 4.4 17:52:07 10° NW 17:54:41 27° NW 17:54:41 27° NW
Cosmos 2082 Rocket 4.2 17:54:09 10° NNW 17:55:55 21° NNW 17:55:55 21° NNW
USA 267 4.3 18:04:13 38° SW 18:04:13 38° SW 18:07:56 10° WSW
USA 229 DEB 4.4 17:55:30 10° NW 18:01:49 56° W 18:01:49 56° W
USA 229 4.3 17:55:36 10° NW 18:01:52 56° W 18:01:52 56° W
